Theta_e
292 292 292 291 290 289 289 288 289 288 288 288 288 288 287 286 286 285 285 284 284 285
291 291 290 290 290 288 288 289 288 288 287 287 287 287 286 285 285 285 284 284 284 285
291 290 290 289 288 288 288 288 288 287 287 287 287 287 286 284 285 284 283 284 284 286
290 290 289 289 288 288 288 288 287 287 287 286 286 286 285 284 283 282 282 283 286 284
289 290 289 289 288 288 287 287 287 287 286 286 286 285 284 282 282 282 281 285 284 280
289 289 289 289 288 287 287 286 286 286 286 285 285 284 283 282 282 282 283 282 280 279
288 289 289 289 288 287 286 286 285 285 285 285 284 283 282 282 282 282 282 282 280 279
289 289 288 287 287 286 286 285 285 284 284 284 282 282 281 281 282 282 281 280 280 279
287 287 287 287 286 285 285 284 284 284 283 282 282 285 286 285 281 282 280 276 276 277
287 287 286 286 285 285 284 284 283 282 280 278 278 285 286 287 281 277 272 273 273 274
286 286 285 285 285 284 283 283 282 279 277 273 274 284 286 287 275 270 269 267 268 270
286 286 285 284 284 283 281 277 278 275 275 273 274 284 286 284 271 270 270 268 266 269
286 286 285 285 283 279 280 282 282 277 275 275 275 282 286 284 272 268 267 265 266 276
285 285 285 284 282 280 280 278 280 276 275 275 273 274 285 287 271 272 267 265 265 267
Wind_Speed
12 8 7 8 5 5 5 5 6 6 6 6 5 5 5 3 3 4 3 4 4 4
10 9 8 8 6 5 5 5 6 7 6 6 6 5 5 3 4 3 3 4 4 5
11 9 7 7 8 7 6 7 7 7 6 6 6 5 4 3 3 2 2 3 5 6
9 9 8 8 7 8 7 7 7 7 6 6 6 5 4 3 3 3 4 5 6 4
9 9 10 9 9 8 8 6 7 6 6 6 6 5 5 4 4 4 5 5 4 6
10 11 11 11 10 9 8 7 7 7 7 6 6 5 5 5 5 5 5 3 5 6
11 12 12 11 11 10 9 8 7 7 7 6 6 5 5 5 5 5 3 5 5 5
11 11 10 11 10 9 9 8 8 7 6 6 5 4 6 4 5 5 5 5 5 5
10 11 12 10 10 10 9 8 8 8 7 7 5 10 10 7 5 5 4 5 4 5
12 12 12 11 11 11 11 8 9 7 7 7 5 11 11 12 4 4 4 5 4 4
12 13 11 12 12 10 8 11 8 8 7 5 6 13 14 13 4 4 4 5 4 4
13 13 13 14 13 10 9 6 6 5 7 8 6 14 13 9 4 4 6 4 3 4
14 15 15 14 13 6 6 8 7 7 7 8 7 12 13 9 3 4 3 4 4 6
12 13 13 12 8 10 8 6 7 6 5 6 6 7 13 13 4 4 3 3 3 3
Wind_Direction
188 183 180 176 167 180 184 185 174 178 171 176 191 205 209 213 233 224 232 245 232 254
179 172 180 172 170 170 170 179 172 177 172 181 194 206 209 222 245 232 242 250 243 255
183 175 168 158 176 177 178 178 169 177 177 183 197 206 208 230 247 258 258 260 253 279
176 172 163 177 178 180 171 179 178 181 178 185 196 205 212 235 254 244 268 259 274 277
170 169 177 185 182 173 184 179 178 180 181 187 197 204 211 231 240 254 262 285 293 275
183 178 188 187 180 178 175 176 180 179 187 193 198 203 214 223 238 258 260 298 278 275
192 191 190 185 180 179 177 172 180 187 190 192 196 203 210 214 242 263 269 272 261 274
194 190 183 180 179 172 171 180 178 179 190 191 197 204 206 206 238 243 272 266 275 281
181 181 188 181 174 170 177 179 176 186 186 190 204 212 214 211 219 226 256 273 269 286
186 187 187 175 172 180 185 173 185 185 179 199 201 209 216 225 214 200 238 247 283 294
186 188 177 172 182 179 171 183 183 184 188 184 216 213 215 224 205 208 236 233 240 257
188 182 177 184 181 178 167 168 172 173 185 197 220 213 215 214 184 219 250 241 262 243
186 185 186 184 177 155 166 180 172 191 200 198 214 214 213 210 172 211 246 273 272 286
187 189 180 168 162 159 164 144 173 189 192 207 211 223 218 217 185 199 217 232 272 266